Regional Weather Roundup
Issued by NWS Goodland, KS

Home | Current Version | Previous Version | Text Only | Print | Product List | Glossary On
Versions: 1 2 3 4 5 6 7 8 9 10 11 12 13 14 15 16 17 18 19 20 21 22 23 24 25 26 27 28 29 30 31 32 33 34 35 36 37 38 39 40 41 42 43 44 45 46 47 48 49 50
000
ASUS43 KGLD 060808
RWRGLD

GOODLAND FORECAST AREA HOURLY WEATHER ROUNDUP
NATIONAL WEATHER SERVICE GOODLAND KS
200 AM MDT MON JUL 06 2015

...OFFICIAL OBSERVATIONS...

CITY           SKY/WX    TMP DP  RH WIND       PRES   REMARKS
GOODLAND KS    CLOUDY    67  64  90 NW10      29.93R
HILL CITY KS   CLOUDY    83  64  52 SW9       29.85F
IMPERIAL NEB   LGT RAIN  67  64  90 NE10G22   29.95S
MCCOOK NEB     LGT RAIN  71  67  87 N13       29.86F
AKRON CO       CLOUDY    64  62  93 NW13      30.07R
BURLINGTON CO  CLOUDY    67  61  81 N13       29.97F
LIMON CO       CLOUDY    62  59  90 NW10      30.12R
$$

...UNOFFICIAL OBSERVATIONS...

CITY           SKY/WX    TMP DP  RH WIND       PRES   REMARKS
COLBY KS       CLEAR     72  66  83 N14G21    29.88S
GOVE KS          N/A     80  32  17 MISG        N/A
NORTON KS      LGT RAIN  79  63  57 NW5       29.85S
SHARON SPRINGS   N/A     70  62  77 N12G18      N/A
KIT CARSON CO    N/A     69  60  74 MISG        N/A
$$



USA.gov is the U.S. government's official web portal to all federal, state and local government web resources and services.